PERSEUS-M1

Last updated on Sat Aug 30 2025 00:03:48 GMT+0000 (Coordinated Universal Time)

1 40039U 14033AF 25241.27007736 .00002251 00000+0 21646-3 0 9994 2 40039 97.9298 176.5221 0011858 178.4980 181.6278 14.93998842607021
UTC large
Height (km)
Speed (km/s)
/
Latitude / Longitude
Inclination (degrees)
Orbital Period (minutes)
Azimuth
Elevation
Range (km)
Doppler Factor

Next 0 passes for location: London (51.5072 / 0.1276)

Sorry there are no passes over London.